Cloud_Cover
100 100 100 100 100 100 100 100 100 54 10 32 38 100 88 100 100 90 42 30 95 100 100 31 0 0 11 0 0 0 0 0 0 0 0 0 3 44 8 5 18 62 100 100 100 58 99
100 100 100 100 100 100 100 100 100 95 100 98 74 100 100 100 100 100 100 94 18 88 100 15 0 21 0 0 0 0 0 0 0 0 0 0 2 6 5 6 38 86 100 100 100 100 40
100 100 100 100 100 100 100 100 99 100 100 100 72 99 100 71 100 100 100 100 100 15 93 5 0 1 0 0 0 0 0 0 0 0 0 0 5 0 8 13 58 7 100 100 100 97 100
99 75 100 100 100 100 100 100 100 100 100 100 50 24 92 100 95 100 97 100 100 58 15 0 2 0 0 0 0 0 0 0 0 0 0 0 3 4 6 5 58 92 100 100 100 100 100
18 77 100 100 100 100 100 100 100 100 100 100 31 8 15 100 100 100 0 13 18 5 0 3 7 0 0 0 0 0 0 0 0 0 0 0 5 5 6 81 66 9 100 100 100 98 88
15 100 100 100 100 100 100 100 100 100 100 67 22 4 3 96 100 98 0 5 1 28 9 5 5 5 3 0 0 0 0 0 0 0 0 0 49 59 21 78 100 43 75 100 100 94 100
94 100 100 100 100 12 0 2 100 100 100 55 3 0 1 34 95 72 48 0 0 0 0 0 0 1 5 0 0 0 0 0 0 0 0 0 7 96 100 92 26 59 12 100 100 100 100
89 100 100 100 90 70 100 100 100 100 100 19 0 0 11 25 100 2 16 1 0 0 0 0 0 0 1 5 0 0 0 0 0 0 0 0 4 70 5 1 22 5 6 95 100 96 100
100 100 100 100 100 100 100 100 100 100 64 18 5 3 5 70 26 34 5 5 5 4 5 0 0 0 0 0 5 0 0 0 0 0 0 3 48 2 2 3 5 5 5 5 85 100 100
100 100 100 100 100 100 100 100 100 50 5 4 4 2 27 95 54 5 6 5 34 32 6 5 4 1 0 0 0 0 0 0 0 0 0 0 2 0 0 5 5 45 1 0 0 100 100
100 17 87 100 100 100 100 100 86 0 0 5 0 5 96 96 5 5 5 5 6 35 77 57 6 5 2 0 0 0 0 0 0 0 0 0 0 2 5 4 5 78 2 4 17 90 100
100 88 27 13 100 100 100 96 0 1 4 5 5 6 98 42 5 5 5 5 5 5 57 73 78 24 5 3 0 0 0 0 0 0 0 0 0 4 1 6 2 4 4 4 15 95 100
100 100 24 0 100 98 71 4 5 5 5 3 5 8 58 88 81 34 41 14 40 6 5 5 62 88 23 18 4 0 0 0 1 0 0 0 0 3 5 10 0 2 32 100 98 100 100
100 100 28 29 100 100 73 5 4 5 5 5 5 47 50 62 100 100 72 98 96 97 5 5 39 92 85 67 13 5 0 0 0 1 0 0 3 1 0 26 99 7 100 100 98 98 88
100 71 2 94 100 55 5 11 15 5 18 29 28 14 5 19 38 98 86 100 100 100 56 10 5 51 31 15 21 5 0 5 0 2 5 0 56 6 0 0 4 46 4 14 5 2 1
100 1 0 3 5 5 5 5 15 89 100 100 78 32 19 28 43 53 77 100 100 100 100 100 100 93 95 49 22 5 2 5 5 5 4 5 95 1 0 0 0 1 19 29 40 54 85
88 1 5 5 8 9 6 9 7 88 100 100 84 48 5 5 24 46 87 100 100 100 100 100 100 100 54 99 56 5 18 0 64 93 41 5 23 18 0 2 85 2 3 0 27 28 71
36 5 5 16 100 45 100 100 58 96 100 100 99 19 5 5 10 54 85 94 100 100 100 100 100 100 100 100 100 100 100 9 5 99 100 24 5 95 96 1 0 0 7 54 81 95 24
97 6 78 99 100 98 74 24 12 5 5 6 74 21 24 23 8 35 79 100 100 100 100 100 100 100 100 100 100 100 100 40 5 81 100 100 14 100 25 2 0 0 1 2 2 5 5
6 33 100 100 100 100 60 45 51 34 5 13 7 65 47 28 6 20 43 67 88 77 90 100 100 100 100 100 100 100 100 98 65 55 100 100 95 80 100 100 70 33 0 0 0 17 38
21 59 73 83 100 100 73 16 61 78 95 55 7 24 20 8 5 31 67 59 48 95 100 100 100 100 100 100 100 100 100 100 99 86 100 100 100 78 99 40 0 0 1 0 0 0 2
25 5 36 31 100 100 99 5 7 50 36 38 29 6 5 5 5 75 97 29 28 35 68 24 19 54 93 100 100 100 100 100 100 88 100 100 100 100 100 100 20 0 0 0 0 0 0
22 34 17 17 100 100 100 27 5 5 5 5 48 29 5 5 11 7 42 7 14 5 5 5 4 5 79 90 100 100 100 100 100 100 100 100 100 100 100 68 87 64 0 0 0 0 0
83 100 46 15 74 100 100 52 5 5 10 5 44 32 5 5 4 5 2 5 5 15 6 5 5 80 28 72 100 100 100 100 100 100 100 100 100 100 100 100 61 100 88 0 0 0 0
84 100 100 79 5 8 100 100 15 5 8 4 93 69 17 4 5 0 5 5 8 39 75 77 5 83 93 100 100 100 100 100 100 100 100 100 100 100 100 96 100 85 99 67 4 0 0
41 5 68 96 14 5 74 100 93 73 49 9 71 98 86 12 3 5 11 5 4 5 5 99 42 98 100 100 100 100 100 100 100 100 100 100 100 100 100 100 100 97 39 73 5 32 0
63 3 33 60 8 5 95 100 99 85 100 75 100 80 62 16 0 3 3 2 0 2 3 18 99 100 100 100 100 100 100 100 100 100 100 100 100 100 100 100 100 96 35 6 38 13 0
100 60 5 11 5 5 91 96 55 7 24 36 98 70 66 72 0 0 0 0 0 0 9 38 67 100 100 100 100 100 100 100 100 100 100 100 100 100 100 100 100 99 18 49 6 61 4
100 94 5 5 7 95 59 78 5 5 5 75 30 52 100 89 5 4 6 3 4 4 2 5 70 100 100 80 33 87 20 100 91 100 100 100 100 100 100 100 100 100 24 88 5 5 26